Location: *
(49.8044°N, 4.0558°E)
Time: 00:32:53
(UTC+00:00)

COSMOS 2455 - Pass Details

Date: 09 April 2020
Orbit: 899 x 910 km, 67.1° (Epoch: 04 June)

Event Time Altitude Azimuth Distance (km) Brightness Sun altitude
Rises 20:00:25 0° 322° (NW) 3,546 7.4 -14.5°
Reaches altitude 10° 20:02:58 10° 318° (NW) 2,602 6.5 -14.8°
Maximum altitude 20:08:51 56° 242° (WSW) 1,072 3.4 -15.6°
Enters shadow 20:13:54 14° 168° (SSE) 2,299 4.5 -16.3°
